Weather History for Fort Polk, LA

Change the Weather History Date:

Wednesday, May 13, 2009

  Actual Average Record
Temperature  
Mean Temperature 79 °F -  
Max Temperature 87 °F 81 °F 90 °F (2011)
Min Temperature 71 °F 62 °F 50 °F (2013)
Cooling Degree Days 14    
Growing Degree Days 29 (Base 50)    
Moisture  
Dew Point 70 °F    
Average Humidity 83    
Maximum Humidity 100    
Minimum Humidity 49    
Precipitation  
Precipitation 0.01 in - - ()
Sea Level Pressure  
Sea Level Pressure 29.96 in    
Wind  
Wind Speed 8 mph (South)    
Max Wind Speed 14 mph    
Max Gust Speed 24 mph    
Visibility 8 miles    
Events      
Averages and records for this station are not official NWS values.
T = Trace of Precipitation, MM = Missing Value Source: NWS Daily Summary

Daily Weather History Graph

Daily Weather History Graph

Search for Another Location

Airport:

Trip Planner

Search our weather history database for the weather conditions in past years. The results will help you decide how hot, cold, wet, or windy it might be!

Date:

Astronomy

May. 13, 2009 Rise Set
Actual Time 6:18 AM CDT 8:00 PM CDT
Civil Twilight 5:52 AM CDT 8:26 PM CDT
Nautical Twilight 5:20 AM CDT 8:58 PM CDT
Astronomical Twilight 4:46 AM CDT 9:31 PM CDT
Moon No Moon Rise 9:38 AM CDT (5/13)
Length of Visible Light 14h 34m
Length of Day
13h 41m
Waning Gibbous, 82% of the Moon is Illuminated
May 13
Waning Gibbous
May 17
Last Quarter
May 24
New
May 30
First Quarter
Jun 7
Full

Hourly Weather History & Observations

Time (CDT) Temp. Heat Index Dew Point Humidity Pressure Visibility Wind Dir Wind Speed Gust Speed Precip Events Conditions
12:55 AM 72.0 °F - 70.0 °F 93% 29.96 in 5.0 mi SE 6.9 mph - N/A   Clear
1:14 AM 71.6 °F - 69.8 °F 94% 29.97 in 5.0 mi SE 6.9 mph - N/A   Scattered Clouds
1:26 AM 71.6 °F - 71.6 °F 100% 29.97 in 5.0 mi SE 6.9 mph - N/A   Mostly Cloudy
1:42 AM 71.6 °F - 71.6 °F 100% 29.97 in 5.0 mi SE 5.8 mph - N/A   Mostly Cloudy
1:55 AM 72.0 °F - 70.0 °F 93% 29.97 in 6.0 mi SE 5.8 mph - N/A   Mostly Cloudy
2:55 AM 71.1 °F - 70.0 °F 96% 29.97 in 4.0 mi SSE 5.8 mph - N/A   Overcast
3:34 AM 71.6 °F - 69.8 °F 94% 29.95 in 4.0 mi South 5.8 mph - N/A   Scattered Clouds
3:53 AM 71.6 °F - 71.6 °F 100% 29.96 in 5.0 mi SSE 5.8 mph - N/A   Mostly Cloudy
3:55 AM 72.0 °F - 71.1 °F 97% 29.96 in 5.0 mi SSE 5.8 mph - N/A   Mostly Cloudy
4:33 AM 71.6 °F - 71.6 °F 100% 29.95 in 7.0 mi South 6.9 mph - N/A   Mostly Cloudy
4:52 AM 71.6 °F - 71.6 °F 100% 29.95 in 7.0 mi South 9.2 mph - 0.01 in   Overcast
4:55 AM 72.0 °F - 71.1 °F 97% 29.95 in 7.0 mi South 8.1 mph - 0.01 in   Overcast
5:55 AM 73.0 °F - 71.1 °F 93% 29.95 in 8.0 mi South 5.8 mph - N/A   Overcast
6:04 AM 73.4 °F - 71.6 °F 94% 29.95 in 8.0 mi South 5.8 mph - N/A   Overcast
6:55 AM 73.0 °F - 71.1 °F 93% 29.96 in 6.0 mi South 5.8 mph - N/A   Overcast
7:55 AM 73.9 °F - 71.1 °F 91% 29.97 in 10.0 mi South 8.1 mph - N/A   Mostly Cloudy
8:43 AM 75.2 °F - 71.6 °F 89% 29.98 in 10.0 mi South 8.1 mph - N/A   Overcast
8:55 AM 75.9 °F - 72.0 °F 87% 29.99 in 10.0 mi South 9.2 mph - N/A   Overcast
9:11 AM 75.2 °F - 71.6 °F 89% 29.99 in 10.0 mi South 8.1 mph - N/A   Overcast
9:18 AM 77.0 °F - 71.6 °F 83% 29.98 in 10.0 mi SSE 9.2 mph 16.1 mph N/A   Overcast
9:55 AM 78.1 °F - 70.0 °F 76% 29.99 in 10.0 mi SSW 9.2 mph 16.1 mph N/A   Mostly Cloudy
10:55 AM 82.0 °F 85.9 °F 70.0 °F 67% 29.99 in 10.0 mi SSE 10.4 mph - N/A   Mostly Cloudy
11:05 AM 82.4 °F 86.3 °F 69.8 °F 66% 29.98 in 10.0 mi SSE 8.1 mph 18.4 mph N/A   Scattered Clouds
11:55 AM 84.0 °F 87.8 °F 69.1 °F 61% 29.98 in 10.0 mi South 13.8 mph 19.6 mph N/A   Mostly Cloudy
2:55 PM 87.1 °F 89.9 °F 66.9 °F 51% 29.94 in 10.0 mi South 12.7 mph 21.9 mph N/A   Scattered Clouds
3:55 PM 86.0 °F 88.8 °F 66.9 °F 53% 29.93 in 10.0 mi South 11.5 mph 20.7 mph N/A   Scattered Clouds
4:55 PM 86.0 °F 87.6 °F 64.9 °F 49% 29.91 in 10.0 mi SSW 13.8 mph 24.2 mph N/A   Clear
5:55 PM 84.9 °F 87.6 °F 66.9 °F 55% 29.92 in 10.0 mi South 11.5 mph 20.7 mph N/A   Scattered Clouds
6:55 PM 82.0 °F 84.9 °F 68.0 °F 62% 29.93 in 10.0 mi South 8.1 mph - N/A   Clear
7:55 PM 79.0 °F - 64.9 °F 62% 29.95 in 10.0 mi South 6.9 mph - N/A   Clear
8:55 PM 77.0 °F - 66.9 °F 71% 29.96 in 10.0 mi SSE 8.1 mph - N/A   Clear
9:55 PM 75.0 °F - 68.0 °F 79% 29.97 in 10.0 mi SSE 9.2 mph - N/A   Clear
10:55 PM 73.0 °F - 69.1 °F 87% 29.99 in 10.0 mi SSE 5.8 mph - N/A   Clear
11:55 PM 73.0 °F - 69.1 °F 87% 29.99 in 10.0 mi SSE 5.8 mph - N/A   Clear